TimeMDT,TemperatureF,Dew PointF,Humidity,Sea Level PressureIn,VisibilityMPH,Wind Direction,Wind SpeedMPH,Gust SpeedMPH,PrecipitationIn,Events,Conditions,WindDirDegrees,DateUTC
12:15 AM,37.2,32.9,84,30.12,10.0,SW,4.6,-,N/A,,Clear,220,2012-10-30 06:15:00
12:35 AM,38.3,32.9,81,30.12,10.0,North,4.6,-,N/A,,Clear,360,2012-10-30 06:35:00
12:55 AM,37.2,33.1,85,30.13,10.0,Calm,Calm,-,N/A,,Clear,0,2012-10-30 06:55:00
1:15 AM,37.8,33.1,83,30.12,10.0,Calm,Calm,-,N/A,,Clear,0,2012-10-30 07:15:00
1:55 AM,35.6,32.2,87,30.13,10.0,Calm,Calm,-,N/A,,Clear,0,2012-10-30 07:55:00
2:15 AM,34.5,32.0,90,30.13,10.0,SSW,3.5,-,N/A,,Clear,200,2012-10-30 08:15:00
2:55 AM,34.5,32.2,91,30.13,10.0,Calm,Calm,-,N/A,,Clear,0,2012-10-30 08:55:00
3:15 AM,34.9,32.0,89,30.13,10.0,Calm,Calm,-,N/A,,Clear,0,2012-10-30 09:15:00
3:35 AM,34.5,32.0,90,30.13,10.0,Calm,Calm,-,N/A,,Clear,0,2012-10-30 09:35:00
3:55 AM,33.4,31.5,92,30.13,10.0,Calm,Calm,-,N/A,,Clear,0,2012-10-30 09:55:00
4:15 AM,33.8,31.8,92,30.13,10.0,Calm,Calm,-,N/A,,Clear,0,2012-10-30 10:15:00
4:35 AM,32.9,30.7,92,30.14,10.0,SW,3.5,-,N/A,,Clear,220,2012-10-30 10:35:00
4:55 AM,34.0,31.6,91,30.14,10.0,South,4.6,-,N/A,,Clear,180,2012-10-30 10:55:00
5:15 AM,33.8,31.6,92,30.15,10.0,South,4.6,-,N/A,,Clear,190,2012-10-30 11:15:00
5:35 AM,35.6,31.1,84,30.15,10.0,Calm,Calm,-,N/A,,Clear,0,2012-10-30 11:35:00
6:15 AM,33.1,30.9,92,30.16,10.0,Calm,Calm,-,N/A,,Clear,0,2012-10-30 12:15:00
6:35 AM,32.5,30.9,94,30.16,10.0,SW,4.6,-,N/A,,Clear,220,2012-10-30 12:35:00
6:55 AM,33.3,31.3,92,30.17,10.0,Calm,Calm,-,N/A,,Clear,0,2012-10-30 12:55:00
7:35 AM,32.5,31.1,94,30.18,10.0,SSW,3.5,-,N/A,,Clear,200,2012-10-30 13:35:00
7:55 AM,34.0,31.8,92,30.18,10.0,SSW,3.5,-,N/A,,Clear,200,2012-10-30 13:55:00
8:15 AM,38.1,33.3,83,30.19,10.0,South,4.6,-,N/A,,Clear,190,2012-10-30 14:15:00
8:35 AM,41.5,34.9,77,30.19,10.0,South,4.6,-,N/A,,Clear,180,2012-10-30 14:35:00
8:55 AM,45.5,36.9,72,30.18,10.0,Calm,Calm,-,N/A,,Clear,0,2012-10-30 14:55:00
9:15 AM,49.8,38.5,65,30.18,10.0,SSW,3.5,-,N/A,,Clear,210,2012-10-30 15:15:00
9:35 AM,55.8,34.3,44,30.18,10.0,South,5.8,-,N/A,,Clear,170,2012-10-30 15:35:00
9:55 AM,59.2,32.7,37,30.18,10.0,South,6.9,-,N/A,,Clear,170,2012-10-30 15:55:00
10:15 AM,60.6,31.5,33,30.17,10.0,SSE,10.4,-,N/A,,Clear,150,2012-10-30 16:15:00
10:35 AM,62.1,31.8,32,30.18,10.0,SSE,9.2,-,N/A,,Clear,160,2012-10-30 16:35:00
10:55 AM,63.0,31.5,31,30.18,10.0,SSE,6.9,-,N/A,,Clear,160,2012-10-30 16:55:00
11:15 AM,63.3,29.8,28,30.17,10.0,SSE,6.9,-,N/A,,Clear,160,2012-10-30 17:15:00
11:35 AM,64.4,30.9,29,30.17,10.0,SSW,6.9,-,N/A,,Clear,200,2012-10-30 17:35:00
11:55 AM,65.5,29.5,26,30.16,10.0,South,10.4,-,N/A,,Clear,180,2012-10-30 17:55:00
12:15 PM,65.5,28.9,25,30.16,10.0,South,9.2,-,N/A,,Clear,190,2012-10-30 18:15:00
12:35 PM,65.1,27.7,24,30.14,10.0,SW,8.1,-,N/A,,Clear,220,2012-10-30 18:35:00
12:55 PM,65.5,26.6,23,30.13,10.0,SW,4.6,-,N/A,,Clear,230,2012-10-30 18:55:00
1:15 PM,67.8,27.9,22,30.11,10.0,South,4.6,-,N/A,,Clear,190,2012-10-30 19:15:00
1:35 PM,68.4,26.1,20,30.10,10.0,SW,3.5,-,N/A,,Clear,220,2012-10-30 19:35:00
1:55 PM,68.9,24.6,19,30.09,10.0,SSW,4.6,-,N/A,,Clear,200,2012-10-30 19:55:00
2:15 PM,69.3,26.1,20,30.08,10.0,Calm,Calm,-,N/A,,Clear,0,2012-10-30 20:15:00
2:35 PM,71.1,25.0,18,30.07,10.0,West,4.6,-,N/A,,Clear,280,2012-10-30 20:35:00
2:55 PM,72.5,21.6,15,30.06,10.0,West,8.1,-,N/A,,Clear,260,2012-10-30 20:55:00
3:15 PM,72.9,21.4,14,30.06,10.0,West,11.5,-,N/A,,Clear,280,2012-10-30 21:15:00
3:35 PM,72.5,22.6,15,30.06,10.0,WNW,12.7,20.7,N/A,,Clear,290,2012-10-30 21:35:00
3:55 PM,72.0,22.6,16,30.06,10.0,West,12.7,-,N/A,,Clear,270,2012-10-30 21:55:00
4:15 PM,71.2,22.8,16,30.07,10.0,West,11.5,-,N/A,,Clear,270,2012-10-30 22:15:00
4:35 PM,70.7,23.4,17,30.07,10.0,West,11.5,-,N/A,,Clear,270,2012-10-30 22:35:00
4:55 PM,69.8,23.7,18,30.07,10.0,West,11.5,-,N/A,,Clear,260,2012-10-30 22:55:00
5:15 PM,68.2,25.3,20,30.07,10.0,West,9.2,-,N/A,,Clear,270,2012-10-30 23:15:00
5:35 PM,67.1,25.2,21,30.07,10.0,West,9.2,16.1,N/A,,Clear,260,2012-10-30 23:35:00
5:55 PM,64.8,25.5,23,30.08,10.0,West,8.1,-,N/A,,Clear,260,2012-10-30 23:55:00
6:15 PM,62.1,27.5,27,30.10,10.0,Calm,Calm,-,N/A,,Clear,0,2012-10-31 00:15:00
6:35 PM,61.7,27.1,27,30.10,10.0,Calm,Calm,-,N/A,,Clear,0,2012-10-31 00:35:00
6:55 PM,56.3,32.5,41,30.11,10.0,WNW,8.1,-,N/A,,Clear,300,2012-10-31 00:55:00
7:15 PM,52.3,34.0,50,30.13,10.0,Calm,Calm,-,N/A,,Clear,0,2012-10-31 01:15:00
7:35 PM,52.7,32.9,47,30.13,10.0,Calm,Calm,-,N/A,,Clear,0,2012-10-31 01:35:00
7:55 PM,51.1,33.6,51,30.13,10.0,Calm,Calm,-,N/A,,Clear,0,2012-10-31 01:55:00
8:15 PM,48.6,33.8,57,30.13,10.0,Calm,Calm,-,N/A,,Clear,0,2012-10-31 02:15:00
8:35 PM,48.9,34.0,56,30.13,10.0,Calm,Calm,-,N/A,,Clear,0,2012-10-31 02:35:00
8:55 PM,45.9,34.7,65,30.13,10.0,Calm,Calm,-,N/A,,Clear,0,2012-10-31 02:55:00
9:15 PM,45.0,34.5,67,30.13,10.0,South,3.5,-,N/A,,Clear,190,2012-10-31 03:15:00
9:35 PM,45.1,34.3,66,30.14,10.0,SSW,3.5,-,N/A,,Clear,210,2012-10-31 03:35:00
9:55 PM,43.0,34.7,73,30.15,10.0,NE,3.5,-,N/A,,Clear,40,2012-10-31 03:55:00
10:15 PM,44.8,34.3,67,30.14,10.0,Calm,Calm,-,N/A,,Clear,0,2012-10-31 04:15:00
10:35 PM,42.1,34.9,76,30.15,10.0,Calm,Calm,-,N/A,,Clear,0,2012-10-31 04:35:00
10:55 PM,42.1,35.6,78,30.14,10.0,Calm,Calm,-,N/A,,Clear,0,2012-10-31 04:55:00
11:15 PM,43.0,35.1,74,30.14,10.0,Calm,Calm,-,N/A,,Clear,0,2012-10-31 05:15:00
11:35 PM,40.3,35.1,82,30.14,10.0,SSW,4.6,-,N/A,,Clear,210,2012-10-31 05:35:00
11:55 PM,40.8,34.5,78,30.15,10.0,SSW,3.5,-,N/A,,Clear,210,2012-10-31 05:55:00